loading
|

DIAMANT R/B, 2682

Orbit data source: Space-Track

DIAMANT R/B, 2682 is space debris in LEO originally from a launch on Wed, 15 Feb 1967 UTC launched from the Hamma Guira Space Track Range (HGSTR). Debris objects in space refer to the collection of defunct objects orbiting the Earth. Examples of debris include non-operational satellites, rocket bodies, and fragments generated from explosions, collisions, or faulty payload assembly.

Loading next visibility...
Loading greatness...
DIAMANT R/B details
Identifier
2682, 1967-014B
Orbit
LEO
Last TLE update13 hours ago
Origin
Flag of FRCNES (FR)
ManufacturerSud
MissionSpacecraft
Bus & MotorRUBIS, Unknown motor
Mass65 kg wet, 65 kg dry
Launch date (UTC)
1967-02-15 (58 years ago)
Launch vehicleUnknown
Launch site
Hamma Guira Space Track Range (HGSTR)
Object type
Payload
Rocket body
Debris
Shape & HBRCyl, 2.1 m
Radar Cross Section1.347 m², Large (>1 m²)

Expand to show TLE details & history

TLE from 13 hours ago
0 DIAMANT R/B
1 02682U 67014B   24278.53394954  .00004391  00000-0  18827-2 0  9996
2 02682  39.4554 111.1381 0749823  58.8689 308.3405 13.30638708781124
Epoch: 2024-10-04T12:48Z
Definitive object data (Epoch: 2024-10-04T12:48:53.24Z)
Latitude-0.00003°
Longitude-94.78701°
Altitude821.798 km
Speed7.601 km/s
True Right ascension07h 24m 33s
True Declination0° 00' 00"
Sunlit
Object was in daylight at TLE epoch
Predictive object data (real-time)
Latitude-8.19991°
Longitude-107.10372°
Altitude957.136 km
Speed7.466 km/s
Apparent Right ascension06h 52m 37s
Apparent Declination-22° 53' 10"
Sunlit
Object is in daylight
Predictive observer data (real-time)
Local Sidereal Time19:18:22
Azimuth19.649° NNE
Elevation-72.12°
Doppler factor1
Orbital elements
Apogee1,710.917 km
Perigee582.459 km
Semi-major axis7,524.825 km
Eccentricity0.0749823
Inclination39.4554°
RAAN111.1381°
Arg. of periapsis58.8689°
True anomaly301.2049°
Mean anomaly308.3405°
Eccentric anomaly304.81327°
Mean motion3.32505 °/min
BSTAR0.0018827
Period108.27 mins
No data available

DIAMANT R/B Visibility forecast

Observer location: 39.9160978°, -105.1181434

DIAMANT R/B is not visible in the next 10 days
Span
Click to sort rows by Start time (UTC) header in descending order
Start Az.
Max El. time (UTC)
Max El. Az.
Max El.
End time (UTC)
End Az.